Location: Peach Mountain Observatory
(42.3967°N, 83.9367°W)
Time: 11:32:15
(UTC-04:00)

deb Explorer IX - Pass Details

Date: 22 January 2020
Orbit: 547 x 1100 km, 38.8° (Epoch: 31 March)

Event Time Altitude Azimuth Distance (km) Brightness Sun altitude
Rises 03:59:55 0° 277° (W) 3,872 - -43.7°
Reaches altitude 10° 04:02:54 10° 271° (W) 2,872 - -43.2°
Maximum altitude 04:09:24 42° 203° (SSW) 1,366 - -42.0°
Exits shadow 04:14:55 11° 136° (SE) 2,467 ? -41.0°
Drops below altitude 10° 04:15:11 10° 135° (SE) 2,552 ? -41.0°
Sets 04:17:42 0° 128° (SE) 3,402 ? -40.5°
